www.pogodaiklimat.ru
ПОГОДА в Соллисо
Время
и дата
10:15 04.02
10:35 04.02
10:55 04.02
11:15 04.02
11:35 04.02
11:55 04.02
12:15 04.02
12:35 04.02
12:55 04.02
13:15 04.02
13:35 04.02
13:55 04.02
14:15 04.02
14:35 04.02
14:55 04.02
15:15 04.02
15:35 04.02
15:55 04.02
16:15 04.02
16:35 04.02
16:55 04.02
17:15 04.02
17:35 04.02
17:55 04.02
18:15 04.02
18:35 04.02
18:55 04.02
19:15 04.02
19:35 04.02
19:55 04.02
20:15 04.02
20:35 04.02
20:55 04.02
21:15 04.02
21:35 04.02
21:55 04.02
22:15 04.02
22:35 04.02
22:55 04.02
23:15 04.02
23:35 04.02
23:55 04.02
00:15 05.02
00:35 05.02
00:55 05.02
01:15 05.02
01:35 05.02
01:56 05.02
Ветер
(напр.,м/с)
Видим. Явления Облачность Т
(С)
Тd
(С)
f
(%)
Тe
(С)
Тes
(С)
Комфортность P
(гПа)
Po
(гПа)
Тmin
(С)
Tmax
(С)
R
(мм)
R24
(мм)
S
(см)
ЮВ 4 16 км ясно +4.0 +1.0 81 0 +3 1007.8
ЮВ 3 16 км ясно +5.0 +2.0 81 +2 +6 1007.5
ЮВ 4 16 км ясно +6.0 +2.0 75 +2 +6 1007.5
ЮВ 4 16 км ясно +7.0 +3.0 76 +4 +8 1007.5
Ю 4 16 км ясно +8.0 +3.0 71 +5 +10 1007.2
Ю 4
{7}
16 км ясно +9.0 +3.0 66 +6 +11 1006.5
Ю 4
{6}
16 км ясно +9.0 +3.0 66 +6 +12 1006.2
ЮЗ 4
{9}
16 км ясно +10.0 +3.0 62 +8 +13 1005.5
Ю 5
{9}
16 км ясно +11.0 +3.0 58 +9 +13 1004.9
Ю 6
{9}
16 км ясно +11.0 +3.0 58 +8 +11 1004.5
Ю 6
{10}
16 км ясно +12.0 +2.0 50 +10 +13 1003.9
Ю 7 16 км ясно +12.0 +3.0 54 +9 +12 1003.9
Ю 4
{7}
16 км ясно +12.0 +3.0 54 +10 +15 1003.5
Ю 6
{9}
16 км ясно +12.0 +4.0 58 +10 +12 1003.2
ЮЗ 6
{9}
16 км ясно +13.0 +4.0 54 +11 +13 1002.9
Ю 5
{8}
16 км ясно +13.0 +4.0 54 +11 +13 1002.5
Ю 4 16 км ясно +13.0 +4.0 54 +11 +14 1002.5
Ю 6
{9}
16 км ясно +14.0 +5.0 55 +12 +14 1001.9
Ю 6
{10}
16 км ясно +14.0 +5.0 55 +12 +13 1001.5
Ю 6 16 км ясно +13.0 +5.0 58 +11 +12 1001.9
Ю 5 16 км ясно +13.0 +5.0 58 +11 +12 1001.2
Ю 4 16 км ясно +13.0 +5.0 58 +11 +12 1000.9
Ю 5 16 км ясно +12.0 +4.0 58 +10 +10 1000.9
Ю 4
{7}
16 км ясно +12.0 +4.0 58 +10 +10 1000.9
Ю 4 16 км ясно +11.0 +4.0 62 +9 +9 1000.5
Ю 3 16 км ясно +11.0 +4.0 62 +9 +9 1000.5
Ю 4 16 км ясно +10.0 +4.0 66 +8 +8 1000.5
Ю 3 16 км ясно +10.0 +4.0 66 +8 +8 1000.5
Ю 2 16 км ясно +10.0 +4.0 66 +9 +9 1000.9
Ю 2 16 км ясно +10.0 +4.0 66 +9 +9 1000.9
ЮВ 2 16 км ясно +9.0 +4.0 71 +7 +7 1000.9
штиль 0 16 км ясно +8.0 +4.0 76 +7 +7 1001.2
штиль 0 16 км ясно +9.0 +4.0 71 +8 +8 1001.2
штиль 0 16 км ясно +8.0 +4.0 76 +7 +7 1001.5
штиль 0 16 км ясно +8.0 +4.0 76 +7 +7 1001.9
штиль 0 16 км ясно +7.0 +4.0 81 +6 +6 1001.9
штиль 0 16 км ясно +5.0 +4.0 93 +4 +4 1002.2
штиль 0 16 км ясно +6.0 +4.0 87 +5 +5 1002.2
штиль 0 16 км ясно +4.0 +3.0 93 +3 +3 1002.2
В 2 16 км 5/5 1080 м +3.0 +3.0 100 0 0 1002.2
штиль 0 16 км 8/8 1050 м +3.0 +3.0 100 +2 +2 1001.9
штиль 0 16 км 2/2 1050 м +3.0 +3.0 100 +2 +2 1001.9
штиль 0 16 км ясно +3.0 +3.0 100 +2 +2 1001.9
штиль 0 16 км ясно +3.0 +3.0 100 +2 +2 1001.9
штиль 0 16 км ясно +3.0 +3.0 100 +2 +2 1001.9
штиль 0 16 км ясно +3.0 +2.0 93 +2 +2 1001.5
штиль 0 16 км ясно +2.0 +2.0 100 +1 +1 1001.5
штиль 0 16 км ясно +2.0 +2.0 100 +1 +1 1001.2
Местоположение метеостанции Sallisaw Municipal Airport: широта 35.4400 долгота -94.8000 высота над уровнем моря 161 м.
В архиве по умолчанию представлена погода в Соллисо за последние 1-2 суток. Обновление информации о фактической погоде в базе происходит ежечасно! Архивные данные за месяц целиком и за предыдущие месяцы Вы можете получить, выбрав интересующий диапазон дат из раскрывающегося списка и нажав кнопку "Ввод!".
Внимание! Архив погоды МЕТАР в базе сайта по станциям, не включенным в климатический монитор, хранится не более 60 дней. Нет смысла пытаться выбрать более раннюю дату.
*Определитесь, кто Вы:
Внимание! Время в таблицах - местное (без учета летнего времени). Для получения всемирного времени необходимо вычесть поправку, которая равна -6 ч.
Смотрите также архив погоды в соседних городах и на ближайших метеорологических станциях:
Партнеры нашего сайта:      
Пояснения к столбцам:
  • Ветер - указаны скорость ветра в м/с - средняя за 10 мин, порывы в срок и между сроками (в фигурных скобках) и направление, откуда дует ветер: С - северный,
  • СВ - северо-восточный, В - восточный, ЮВ - юго-восточный, Ю - южный, ЮЗ - юго-западный, З - западный, СЗ - северо-западный.
  • Видимость - горизонтальная дальность видимости в метрах или километрах. При видимости от 1 до 10 км при отсутствии осадков обычно наблюдается дымка, при ухудшении видимости до 1 км и менее - туман. В сухую погоду видимость может ухудшаться дымом, пылью или мглою.
  • Явления - указаны атмосферные явления, наблюдавшиеся в срок или в последний час перед сроком; фигурными скобками обозначены явления, наблюдавшиеся между сроками (за 1-3 часа до срока); квадратными скобками обозначены град или гололедные отложения с указанием их диаметра в мм.
  • Облачность - указаны через наклонную черту общая и нижняя облачность в баллах и высота нижней границы облаков в метрах; квадратными скобками обозначены формы облаков: Ci - перистые, Cs - перисто-слоистые, Cc - перисто-кучевые, Ac - высококучевые, As - высокослоистые, Sc - слоисто-кучевые, Ns - слоисто-дождевые, Cu - кучевые, Cb - кучево-дождевые. Подробнее классификацию облаков см. в Атласе облаков (PDF).
  • T - Температура воздуха - температура, измеренная на высоте 2 м над землей.
  • Td - Температура точки росы - температура, при понижении до которой содержащийся в воздухе водяной пар достигнет насыщения.
  • f - Относительная влажность воздуха - влажноcть воздуха, измеренная на высоте 2 м над землей.
  • Te - Эффективная температура - температура, которую ощущает одетый по сезону человек в тени. Характеристика душности погоды. При расчете учитывается влияние влажности воздуха и скорости ветра на теплоощущения человека.
  • Tes - Эффективная температура на солнце - температура, которую ощущает человек, с поправкой на солнечный нагрев. Характеристика знойности погоды. Зависит от высоты солнца над горизонтом, облачности и скорости ветра. Ночью, в пасмурную погоду, а также при ветре 12 м/с и более поправка равна нулю.
  • P - Атмосферное давление - приведенное к уровню моря атмосферное давление.
  • Po - Атмосферное давление - измеренное на уровне метеостанции атмосферное давление.
  • Tmin - Минимальная температура - минимум температуры воздуха на высоте 2 м над землей.
  • Tmax - Максимальная температура - максимум температуры воздуха на высоте 2 м над землей.
  • R - Количество осадков - Количество выпавших осадков за период времени, мм. При наведении курсора мыши на число - период времени, за который выпало указанное количество осадков.
  • R24 - Количество осадков - Количество выпавших осадков за 24 часа, мм.
  • S - Снежный покров - Высота снежного покрова, см. При наведении курсора мыши на число - состояние снежного покрова и степень покрытия местности в баллах.